Weather in Orto-Nakhara

Russia / Sakha (Yakutia) Republic     60°49′15″N   114°19′24″E
temp.,
°C
wind,
m/s
gust,
m/s
humid.,
%
clouds,
%
prec.,
mm/h
press.,
hPa
HPBL,
m
26 january, tue
tue2600:00−39nne119944 0.0 104118
03:00−40nne129957 0.0 104118
06:00−40nne119976 0.0 104118
09:00−40nne129886 0.0 104218
12:00−38nne119667 0.0 104289
15:00−35nne129076 0.0 1041272
18:00−39n119797 0.0 104318
21:00−41n119892 0.0 104418
27 january, wed
wed2700:00−42n119784 0.0 104418
03:00−43nnw119679 0.0 104518
06:00−43nw119793 0.0 104518
09:00−42wnw119797 0.0 104618
12:00−39w119593 0.0 1046101
15:00−37wsw129294 0.0 1044278
18:00−40sw119689 0.0 104518
21:00−41sw129683 0.0 104518
28 january, thu
thu2800:00−42sw119746 0.0 104318
03:00−42ssw119846 0.0 104118
06:00−43sse119935 0.0 103918
09:00−43e119939 0.0 103718
12:00−39ene129654 0.0 103487
15:00−36ene239450 0.0 1031194
18:00−40ne229938 0.0 103019
21:00−41ne229939 0.0 103025
29 january, fri
fri2900:00−41ne239954 0.0 102951
03:00−41ne239972 0.0 102967
06:00−42ne239972 0.0 103071
09:00−43ne239875 0.0 103272
12:00−41ne249681 0.0 1032195
15:00−38ne249687 0.0 1032289
18:00−39ne1299100 0.0 103426
21:00−41ne129997 0.0 103519
30 january, sat
sat3000:00−42ne129964 0.0 103518
03:00−43ne119969 0.0 103518
06:00−43ne119981 0.0 103518
09:00−43nne119877 0.0 103418
12:00−40nne119575 0.0 1033105
15:00−37n118987 0.0 1030243
18:00−39n1195100 0.0 103018
21:00−41nnw119794 0.0 103018